Probability
6 3 0 0 0 0 0 0 0 0 0 0 0 3 0 0 0 0 0 0 0 0 0 0 0 0 3 0 0 0 0 0 0 0 0 0 0 0 0 0 0 0 0
3 0 0 0 0 0 0 0 0 0 0 0 0 0 0 0 0 0 0 0 0 0 0 0 0 0 0 0 0 0 0 0 0 0 0 0 0 0 0 0 0 0 0
3 3 0 0 0 0 0 0 0 0 0 0 0 0 0 0 0 0 0 0 0 0 0 0 0 0 0 0 0 0 0 0 0 0 0 0 0 0 0 0 0 0 0
3 3 0 0 0 0 0 0 0 0 0 0 0 0 0 0 0 0 0 0 0 0 0 0 0 0 0 0 0 0 0 0 0 0 0 0 0 0 0 0 0 0 0
3 3 0 0 0 0 0 0 0 0 0 0 0 0 0 0 0 0 0 0 0 0 0 0 0 0 0 0 0 0 0 0 0 0 0 0 0 0 0 0 0 0 0
3 3 3 0 0 0 0 0 0 0 0 0 0 0 0 0 0 0 0 0 0 0 0 0 0 0 0 0 0 0 0 0 0 0 0 0 0 0 0 0 0 0 0
3 3 3 0 0 0 0 0 0 0 0 0 0 0 0 0 0 0 0 0 0 0 0 0 0 0 0 0 0 0 0 0 0 0 0 0 0 0 0 0 0 0 0
3 3 3 3 3 0 0 0 0 0 0 0 0 0 0 0 0 0 0 0 0 0 0 0 0 0 0 0 0 0 0 0 0 0 0 0 0 0 0 0 0 0 0
3 3 3 3 3 0 0 0 0 0 0 0 0 0 0 0 0 0 0 0 0 0 0 0 0 0 0 0 0 0 0 0 0 0 0 0 0 0 0 0 0 0 0
0 0 0 0 0 0 0 0 0 0 0 0 0 0 0 0 0 0 0 0 0 0 0 0 0 0 0 0 0 0 0 0 0 0 0 0 0 0 0 0 0 0 0
0 0 0 0 0 0 0 0 0 0 0 0 0 0 0 0 0 0 0 0 0 0 0 0 0 0 0 0 0 0 0 0 0 0 0 0 0 0 0 0 0 0 0
0 0 0 0 0 0 0 0 0 0 0 0 0 0 0 0 0 0 0 0 0 0 0 0 0 0 0 0 0 0 0 0 0 0 0 0 0 0 0 0 0 0 0
0 0 0 0 0 0 0 0 0 0 0 0 0 0 0 0 0 0 0 0 0 0 0 0 0 0 0 0 0 0 0 0 0 0 0 0 0 0 0 0 0 0 0
0 0 0 0 0 0 0 0 0 0 0 0 0 0 0 0 0 0 0 0 0 0 0 0 0 0 0 0 0 0 0 0 0 0 0 0 0 0 0 0 0 0 0
0 3 0 0 0 0 0 0 0 0 0 0 0 0 0 0 0 0 0 0 0 0 0 0 0 0 0 0 0 0 0 0 0 0 0 0 0 0 0 0 0 0 0
0 3 3 3 0 0 0 0 0 0 0 0 0 0 0 0 0 0 0 0 0 0 0 0 0 0 0 0 0 0 0 0 0 0 0 0 0 0 0 0 0 0 0
3 3 3 3 0 0 0 0 0 0 0 0 0 0 0 0 0 0 0 0 0 0 0 0 0 0 0 0 0 0 0 0 0 0 0 0 0 0 0 0 0 0 0
3 3 3 3 0 0 0 0 0 0 0 0 0 0 0 0 0 0 0 0 0 0 0 0 0 0 0 0 0 0 0 0 0 0 0 0 0 0 0 0 0 0 0
3 3 3 3 3 0 0 0 0 0 0 0 0 0 0 0 0 0 0 0 0 0 0 0 0 0 0 0 0 0 0 0 0 0 0 0 0 0 0 0 0 0 0
3 3 3 3 3 3 0 0 0 0 0 0 0 0 0 0 0 0 0 0 0 0 0 0 0 0 0 0 0 0 0 0 0 0 0 0 0 0 0 0 0 0 0
0 0 3 3 3 3 3 0 0 0 0 0 0 0 0 0 0 0 0 0 0 0 0 0 0 0 0 0 0 0 0 0 0 0 0 0 0 0 0 0 0 0 0
0 0 0 0 0 0 0 3 3 0 0 0 0 0 0 0 0 0 0 0 0 0 0 0 0 0 0 0 0 0 0 0 0 0 0 0 0 0 0 0 0 0 0
0 0 0 0 0 0 0 0 3 3 0 0 0 0 0 0 0 0 0 0 0 0 0 0 0 0 0 0 0 0 0 0 0 0 0 0 0 0 0 0 0 0 0
0 0 0 0 0 0 0 0 0 0 0 0 0 0 0 0 0 0 0 0 0 0 0 0 0 0 0 0 0 0 0 0 0 0 0 0 0 0 0 0 0 0 0
0 0 0 0 0 0 0 0 0 0 0 0 0 0 0 0 0 0 0 0 0 0 0 0 0 0 0 0 0 0 0 0 0 0 0 0 0 0 0 0 0 0 0
0 0 0 0 0 0 0 0 0 0 0 0 0 0 0 0 0 0 0 0 0 0 0 0 0 0 0 0 0 0 0 0 0 0 0 0 0 0 0 0 0 0 0
Height
5804 5800 5797 5794 5791 5788 5786 5783 5781 5778 5776 5774 5771 5770 5769 5768 5766 5765 5764 5763 5762 5761 5760 5760 5759 5758 5757 5756 5755 5754 5752 5751 5749 5748 5747 5746 5745 5745 5744 5743 5743 5743 5743
5799 5796 5793 5790 5787 5784 5781 5779 5776 5773 5771 5769 5766 5765 5763 5762 5761 5760 5759 5758 5757 5757 5756 5755 5754 5753 5752 5750 5749 5748 5746 5745 5743 5742 5740 5739 5738 5737 5736 5735 5735 5734 5734
5795 5792 5789 5786 5783 5780 5777 5774 5771 5769 5766 5764 5762 5760 5759 5757 5756 5755 5754 5753 5753 5752 5751 5750 5749 5748 5746 5745 5743 5742 5740 5738 5737 5735 5733 5732 5731 5730 5729 5728 5726 5726 5725
5791 5788 5785 5782 5779 5776 5773 5770 5767 5765 5762 5761 5759 5757 5755 5753 5752 5751 5750 5749 5748 5747 5747 5746 5744 5742 5741 5739 5737 5736 5734 5732 5730 5728 5727 5725 5723 5722 5721 5720 5718 5717 5717
5786 5783 5780 5778 5775 5772 5769 5766 5764 5761 5759 5757 5755 5753 5751 5749 5748 5746 5746 5744 5744 5743 5742 5740 5739 5737 5735 5733 5731 5730 5728 5725 5723 5721 5720 5718 5716 5714 5713 5711 5710 5709 5709
5782 5779 5776 5773 5771 5768 5765 5763 5760 5757 5755 5752 5750 5749 5747 5745 5744 5742 5741 5740 5739 5738 5737 5735 5733 5731 5729 5727 5725 5723 5721 5719 5717 5715 5712 5710 5708 5706 5704 5702 5701 5701 5701
5777 5775 5772 5769 5767 5764 5761 5759 5756 5753 5751 5749 5746 5745 5743 5741 5740 5738 5737 5736 5734 5733 5731 5729 5727 5725 5723 5721 5718 5716 5714 5711 5710 5707 5705 5702 5700 5698 5695 5694 5692 5691 5691
5773 5770 5768 5765 5763 5760 5757 5754 5752 5749 5747 5745 5743 5741 5739 5737 5736 5734 5733 5731 5730 5728 5726 5724 5722 5719 5717 5714 5712 5710 5707 5705 5702 5700 5698 5695 5692 5689 5687 5685 5683 5682 5681
5768 5765 5763 5760 5758 5756 5753 5750 5748 5745 5743 5741 5738 5737 5735 5733 5731 5729 5728 5726 5725 5723 5721 5719 5716 5714 5711 5708 5706 5703 5701 5698 5695 5693 5690 5687 5685 5682 5679 5677 5674 5672 5671
5763 5760 5758 5756 5754 5751 5749 5746 5744 5741 5739 5737 5735 5733 5731 5729 5727 5725 5723 5721 5720 5718 5716 5713 5711 5708 5705 5702 5699 5696 5694 5692 5689 5686 5683 5680 5677 5675 5672 5669 5667 5665 5663
5759 5756 5753 5751 5749 5747 5744 5742 5739 5737 5735 5733 5731 5729 5727 5724 5722 5720 5718 5716 5715 5713 5710 5708 5705 5702 5699 5696 5693 5690 5688 5685 5682 5679 5676 5674 5671 5668 5665 5662 5659 5657 5655
5754 5751 5749 5746 5744 5741 5739 5737 5735 5732 5731 5729 5727 5725 5722 5720 5718 5715 5714 5711 5709 5707 5705 5702 5699 5696 5692 5689 5686 5683 5681 5678 5675 5672 5669 5667 5664 5661 5658 5655 5652 5650 5648
5749 5747 5744 5742 5739 5737 5735 5733 5731 5729 5727 5725 5723 5720 5718 5716 5713 5711 5709 5707 5704 5702 5699 5696 5693 5690 5686 5683 5680 5676 5674 5671 5668 5665 5662 5660 5657 5654 5651 5648 5646 5643 5641
5744 5742 5740 5737 5735 5733 5731 5729 5727 5725 5723 5721 5719 5716 5714 5712 5709 5707 5705 5703 5700 5697 5694 5691 5688 5684 5681 5677 5673 5670 5667 5664 5661 5658 5655 5653 5650 5647 5644 5641 5639 5636 5634
5739 5737 5735 5733 5731 5729 5727 5725 5723 5721 5719 5717 5715 5712 5710 5708 5706 5703 5701 5698 5695 5692 5689 5686 5682 5679 5675 5671 5667 5664 5661 5658 5655 5652 5649 5646 5643 5640 5637 5634 5632 5629 5627
5733 5732 5730 5728 5727 5725 5723 5721 5719 5717 5715 5713 5710 5708 5706 5704 5701 5699 5696 5693 5690 5688 5684 5681 5677 5673 5669 5666 5662 5658 5655 5652 5649 5645 5642 5639 5636 5633 5630 5628 5625 5623 5621
5727 5726 5724 5723 5722 5720 5718 5717 5715 5713 5711 5709 5706 5704 5702 5700 5697 5695 5692 5689 5687 5683 5680 5677 5673 5669 5665 5661 5657 5653 5650 5647 5643 5640 5637 5634 5630 5627 5624 5622 5619 5616 5614
5721 5720 5719 5718 5716 5715 5713 5712 5710 5708 5707 5705 5703 5701 5699 5696 5694 5691 5688 5686 5683 5680 5676 5672 5668 5664 5660 5656 5652 5649 5645 5642 5638 5635 5632 5629 5625 5622 5619 5616 5613 5610 5607
5715 5714 5713 5712 5711 5710 5709 5707 5706 5704 5703 5701 5699 5697 5695 5693 5690 5688 5685 5682 5679 5676 5672 5668 5664 5660 5656 5652 5648 5644 5641 5637 5634 5630 5627 5623 5620 5617 5613 5610 5607 5604 5601
5709 5708 5707 5706 5705 5705 5704 5702 5701 5700 5699 5697 5696 5694 5692 5689 5687 5684 5681 5678 5674 5671 5668 5664 5660 5656 5652 5648 5644 5640 5636 5633 5629 5625 5622 5618 5615 5611 5608 5604 5601 5598 5595
5703 5702 5701 5700 5700 5699 5699 5698 5697 5696 5694 5693 5691 5689 5687 5685 5682 5679 5676 5673 5670 5667 5663 5660 5656 5652 5648 5644 5640 5636 5632 5628 5625 5621 5617 5614 5610 5606 5602 5599 5596 5592 5590
5697 5696 5695 5695 5694 5693 5693 5692 5692 5691 5690 5688 5686 5684 5682 5680 5677 5674 5671 5668 5665 5662 5658 5655 5651 5648 5644 5640 5636 5632 5628 5624 5620 5617 5613 5609 5605 5601 5597 5593 5590 5587 5584
5691 5690 5690 5689 5688 5688 5687 5687 5687 5686 5685 5683 5681 5679 5677 5674 5672 5669 5666 5663 5660 5657 5654 5650 5647 5643 5639 5635 5631 5627 5623 5620 5616 5612 5608 5604 5600 5596 5592 5588 5585 5581 5579
5685 5684 5684 5684 5683 5682 5682 5682 5681 5680 5679 5677 5675 5673 5671 5669 5667 5664 5661 5658 5655 5651 5648 5645 5642 5638 5635 5631 5627 5623 5619 5615 5611 5607 5603 5599 5595 5591 5587 5583 5580 5576 5573
5679 5679 5678 5678 5677 5677 5677 5676 5675 5674 5673 5671 5670 5668 5666 5663 5661 5659 5656 5653 5649 5646 5643 5640 5637 5634 5630 5626 5623 5619 5615 5610 5606 5602 5599 5594 5590 5586 5582 5578 5575 5572 5568
5673 5673 5673 5672 5672 5672 5672 5671 5670 5669 5667 5666 5664 5662 5660 5658 5655 5653 5650 5647 5644 5641 5639 5636 5633 5629 5626 5622 5618 5614 5610 5606 5602 5598 5594 5590 5585 5581 5577 5574 5570 5567 5564
Wind_Speed
17 17 18 18 18 18 18 18 18 18 18 17 17 17 17 17 17 16 16 15 15 15 15 15 16 16 18 18 19 20 21 22 22 22 23 24 25 26 25 26 27 27 29
18 18 17 17 17 17 18 17 17 17 17 16 16 16 16 16 16 16 16 15 15 15 15 16 17 17 18 18 19 20 21 21 22 22 23 24 25 25 25 26 26 27 28
18 17 17 17 17 17 16 16 16 16 15 15 15 15 15 15 14 14 14 14 14 15 16 17 18 18 19 20 20 21 21 22 23 22 22 23 24 25 25 26 26 27 28
17 17 17 17 17 16 16 16 16 16 15 15 15 15 15 14 14 14 14 14 15 15 16 17 18 19 20 21 21 22 22 23 23 23 23 24 25 25 26 26 26 26 27
16 17 17 17 17 16 16 16 16 16 16 16 15 15 15 14 14 14 14 15 15 16 17 19 20 20 21 22 23 23 24 24 24 23 24 25 26 27 28 27 27 26 27
17 17 17 17 16 16 16 17 16 16 16 16 16 16 15 15 15 15 15 15 16 17 19 20 21 21 22 22 23 24 24 24 25 25 26 26 27 28 29 29 28 28 29
17 17 16 16 16 16 17 16 16 16 16 16 16 16 16 16 15 16 16 17 17 18 19 20 21 22 22 23 24 24 24 24 25 25 25 26 26 27 27 27 28 29 30
18 17 17 16 16 16 17 17 16 16 16 16 16 16 16 16 16 17 17 17 18 18 19 20 21 22 22 23 23 24 24 24 24 24 24 24 24 25 25 26 28 29 30
18 17 17 16 16 17 17 17 17 17 17 17 16 16 16 16 17 17 17 18 18 19 20 20 21 22 22 23 23 23 23 24 24 24 24 24 25 25 25 26 26 27 27
18 17 16 16 16 17 17 18 18 17 16 16 15 15 16 16 16 16 17 17 18 19 19 20 21 22 22 23 23 23 23 23 23 23 23 24 24 25 25 25 25 26 26
17 17 17 17 17 17 18 18 18 17 16 16 16 16 16 16 16 16 16 17 18 19 20 20 21 22 22 22 23 22 22 23 23 23 23 23 23 24 24 24 24 25 26
18 18 18 18 18 17 17 17 16 16 16 16 16 16 16 17 17 16 17 18 18 19 19 20 21 22 23 23 23 23 23 23 24 24 24 24 24 24 23 23 23 23 24
18 18 18 17 17 17 17 16 15 15 15 15 16 16 16 17 17 16 16 17 18 18 19 19 20 21 22 23 23 23 23 23 24 24 24 24 24 23 23 23 23 23 23
17 17 16 16 16 17 16 16 16 15 15 16 16 17 17 17 16 16 16 17 18 19 20 20 21 22 23 23 23 23 23 22 22 23 23 23 23 22 22 22 22 23 22
17 17 17 17 17 18 17 17 17 16 16 16 16 17 17 16 16 16 17 18 19 20 20 21 21 22 23 23 22 21 21 21 21 22 22 22 23 22 22 22 22 22 22
19 18 18 18 18 18 18 17 16 16 16 16 16 16 16 16 16 16 17 17 18 19 19 20 21 21 22 22 21 21 20 21 21 21 21 22 22 22 22 22 22 21 21
19 19 19 18 18 18 17 17 16 16 16 16 16 16 16 15 15 15 16 17 18 18 19 19 20 21 21 21 21 21 20 20 20 20 20 21 21 21 21 21 20 20 20
19 19 18 18 18 17 16 16 16 16 15 14 14 15 15 15 15 16 16 17 18 19 19 20 20 21 21 21 21 21 20 20 20 20 21 21 21 21 20 20 19 19 19
19 18 17 17 17 17 16 16 16 15 14 13 13 13 14 15 16 16 17 18 19 19 19 20 20 21 21 21 21 20 20 20 20 20 21 21 21 20 20 19 19 19 18
18 18 17 17 16 16 16 16 16 15 14 14 14 14 15 16 16 17 18 18 19 20 20 21 21 21 21 21 21 21 20 20 20 21 21 21 22 21 21 20 19 19 18
18 18 17 17 17 16 16 16 16 15 15 15 15 15 16 17 18 18 18 19 19 20 21 21 20 21 21 22 22 22 21 20 21 21 21 21 21 21 21 21 20 19 19
18 18 18 17 17 16 16 16 16 16 16 16 16 17 18 18 19 20 19 19 20 21 21 20 20 21 22 23 22 22 21 21 21 21 21 21 21 21 20 20 19 19 19
18 18 17 17 17 16 16 16 17 17 17 18 18 18 19 20 20 20 21 21 21 21 21 20 20 21 22 23 22 22 21 21 21 22 22 22 22 22 21 19 19 19 18
17 17 17 17 17 16 16 17 17 18 18 18 19 19 19 20 20 21 21 22 22 22 21 20 20 21 22 22 22 22 22 21 21 22 23 23 23 22 21 19 19 19 18
18 18 17 17 17 17 17 17 17 17 18 19 19 20 20 20 20 21 21 22 22 21 20 19 20 20 21 22 22 22 22 21 21 22 23 23 23 22 21 20 19 18 17
18 18 18 18 18 17 17 18 18 18 19 19 19 19 20 20 20 21 21 21 20 20 19 19 19 20 21 21 21 22 21 21 21 23 23 23 23 22 21 19 18 17 16
Wind_Direction
315 314 313 310 308 306 305 304 303 300 300 301 298 296 295 294 293 290 288 287 288 287 286 285 287 287 285 283 283 282 282 282 283 282 279 274 271 269 267 265 262 262 259
315 315 315 313 309 308 306 305 305 305 303 302 301 300 296 294 293 291 288 287 288 287 288 289 289 289 289 288 288 288 288 287 284 283 282 279 276 274 272 269 266 265 264
314 315 316 316 313 312 312 313 312 311 309 307 306 304 301 296 293 292 289 287 286 287 288 290 291 291 290 290 291 291 291 289 286 284 283 281 280 278 275 272 269 266 263
313 313 315 317 318 316 315 315 314 313 311 308 307 304 302 301 295 292 291 287 286 286 288 291 294 294 292 290 291 291 291 291 290 285 284 282 281 280 278 276 271 266 263
312 313 314 315 316 316 315 314 312 312 310 307 305 303 301 300 296 293 290 288 287 288 290 292 294 295 295 292 291 290 290 290 288 286 285 284 282 281 278 275 271 269 267
310 312 312 313 314 314 314 313 311 310 310 307 303 301 300 299 297 293 291 290 288 290 294 295 296 295 295 294 293 291 290 290 288 286 286 285 284 283 280 276 272 270 269
310 310 311 312 314 314 313 312 309 309 310 308 305 301 299 298 297 295 293 291 291 294 297 298 299 299 299 298 297 295 293 293 292 290 289 288 287 286 283 279 276 274 271
308 308 309 310 311 313 315 313 309 306 308 308 306 303 299 296 295 294 294 295 297 298 299 300 301 301 301 300 298 295 295 295 295 294 293 292 291 291 288 283 279 277 274
305 306 307 307 308 310 312 311 307 306 305 305 304 303 300 298 294 292 293 295 297 299 300 301 302 302 302 301 300 297 295 295 296 296 295 295 294 293 291 287 284 281 279
303 304 306 306 306 308 309 310 307 306 306 305 304 305 305 303 299 296 294 295 297 300 301 302 303 304 303 303 302 298 297 297 297 297 297 296 295 293 292 290 286 282 280
304 305 303 303 305 306 308 310 309 305 305 306 306 305 305 306 304 301 299 299 300 302 302 303 305 305 305 303 303 300 300 299 299 299 299 298 298 296 295 293 289 286 283
300 304 304 304 306 306 307 309 308 306 305 305 305 304 305 307 306 305 304 304 304 305 305 306 307 308 308 306 304 301 300 300 300 300 300 299 299 298 296 294 292 290 288
299 302 303 304 304 307 309 309 308 308 308 308 308 307 307 309 308 306 306 307 307 307 306 307 309 310 310 308 305 302 301 300 299 300 300 300 300 298 295 293 291 290 289
298 300 301 302 304 307 307 307 307 307 309 310 308 309 309 309 310 309 308 310 311 310 310 310 310 311 310 310 309 307 305 303 301 301 301 300 300 299 296 294 293 292 291
294 297 297 299 302 304 306 307 307 306 309 311 311 311 310 308 308 310 311 312 312 313 313 313 313 315 314 313 312 311 310 309 306 304 303 302 301 300 298 296 294 292 291
292 292 294 298 301 302 304 304 304 305 308 310 311 311 310 310 310 311 312 313 314 316 317 318 318 319 318 317 316 313 313 312 310 308 306 306 304 302 301 298 295 292 290
288 290 291 293 296 299 300 302 303 304 306 308 310 312 315 316 316 315 316 317 318 320 321 322 324 324 323 321 320 318 316 314 313 312 310 310 309 307 305 302 300 296 292
284 287 289 289 291 294 297 300 302 305 306 308 311 315 317 318 319 319 320 320 320 322 323 325 326 327 326 325 323 320 317 316 316 314 312 312 312 312 309 306 305 302 297
281 284 288 288 289 291 294 296 299 303 306 308 310 313 315 317 319 320 320 320 321 322 324 325 325 326 327 327 326 323 321 318 316 316 315 313 313 314 312 310 308 305 302
280 283 287 287 285 287 290 293 294 297 301 304 307 310 312 315 317 319 320 321 322 323 323 323 324 326 327 328 325 324 324 323 321 320 319 317 314 314 313 311 309 307 305
279 281 283 284 282 284 287 290 291 293 297 300 303 307 311 314 316 317 318 319 320 322 323 323 322 324 326 327 325 323 323 324 324 323 322 322 320 317 315 314 312 308 306
277 276 277 280 280 280 284 286 288 291 295 298 301 304 308 310 313 315 317 317 319 320 321 321 322 322 324 327 326 324 323 323 323 324 323 323 323 321 318 317 315 311 308
278 277 277 279 279 278 279 283 288 292 294 297 300 302 304 308 310 312 315 316 316 316 317 318 320 322 323 324 325 325 324 322 322 322 323 324 324 323 322 320 318 316 313
278 277 276 277 278 278 282 286 289 290 291 294 297 300 302 305 307 310 313 315 316 316 315 316 319 321 323 322 323 324 324 323 322 323 325 325 325 325 324 321 320 318 316
276 278 276 275 276 279 283 286 289 290 291 293 295 298 301 303 306 309 312 313 314 315 314 316 319 321 322 323 325 326 327 326 326 327 326 325 325 324 324 322 322 320 318
274 277 277 276 274 275 279 283 288 291 291 294 296 300 304 306 307 309 311 312 314 315 315 315 316 318 320 321 323 324 325 326 327 327 328 329 328 326 325 325 325 324 322